Location: Eitze
(52.9840°N, 9.6894°E)
Time: 01:59:26
(UTC+00:00)

Meteor 2-13 Rocket - Pass Details

Date: 19 May 2025
Orbit: 934 x 958 km, 82.5° (Epoch: 23 June)

Event Time Altitude Azimuth Distance (km) Brightness Sun altitude
Exits shadow 22:19:04 23° 182° (S) 1,933 5.5 -15.9°
Maximum altitude 22:23:10 80° 98° (E) 974 4.4 -16.1°
Drops below altitude 10° 22:29:19 10° 13° (NNE) 2,687 7.8 -16.3°
Sets 22:31:49 0° 12° (NNE) 3,633 8.7 -16.4°
